EW2874 Weather Reports


time (UTC)temp
F
wind
direction
speed
knots
gust
knots
rain 1hr
in
rain 24hr
in
rain mn
in
humidity
%
barometer
mb
20260505011657 75 281 12.2 19.1 0.00 0.00 0.00 35 1001.3
20260505011534 75 257 13.0 19.1 0.00 0.00 0.00 35 1000.3
20260505011159 75 273 11.3 19.1 0.00 0.00 0.00 35 1001.2
20260505010657 76 281 10.4 19.1 0.00 0.00 0.00 34 1001.1
20260505010155 76 276 10.4 20.9 0.00 0.00 0.00 33 1000.9
20260505005657 77 286 8.7 20.9 0.00 0.00 0.00 31 1000.7
20260505005232 78 256 5.2 8.7 0.00 0.00 0.00 28 1000.5
20260505004159 79 277 3.5 5.2 0.00 0.00 0.00 26 1000.3
20260505002641 80 277 3.5 5.2 0.00 0.00 0.00 25 1000.0
20260505002144 81 277 4.3 6.1 0.00 0.00 0.00 25 1000.1
20260505001628 81 276 4.3 7.0 0.00 0.00 0.00 24 1000.1
20260505001542 80 276 3.5 7.0 0.00 0.00 0.00 25 999.1
20260505001127 81 274 4.3 7.0 0.00 0.00 0.00 25 1000.0
20260505000628 81 271 4.3 7.0 0.00 0.00 0.00 24 1000.1
20260505000132 81 254 5.2 8.7 0.00 0.00 0.00 24 1000.0
20260504235623 81 252 6.1 8.7 0.00 0.00 0.00 22 1000.0
20260504235122 82 244 6.1 9.6 0.00 0.00 0.00 23 1000.0
20260504234625 82 241 7.0 9.6 0.00 0.00 0.00 23 1000.0
20260504233615 83 252 6.1 13.0 0.00 0.00 0.00 22 1000.0
20260504233116 83 245 7.8 13.0 0.00 0.00 0.00 21 1000.0
20260504232113 83 231 7.8 13.0 0.00 0.00 0.00 20 999.9
20260504231631 83 253 5.2 11.3 0.00 0.00 0.00 22 999.0
20260504231604 83 240 7.0 11.3 0.00 0.00 0.00 21 999.9
20260504231109 83 234 8.7 12.2 0.00 0.00 0.00 21 999.9
20260504230057 84 244 7.0 11.3 0.00 0.00 0.00 23 999.9
20260504230002 83 251 6.1 11.3 0.00 0.00 0.00 23 999.0
20260504225545 84 211 6.1 11.3 0.00 0.00 0.00 21 999.9
20260504225042 83 193 5.2 9.6 0.00 0.00 0.00 22 1000.0
20260504224539 83 228 6.1 11.3 0.00 0.00 0.00 22 999.9
20260504224035 83 234 7.0 11.3 0.00 0.00 0.00 21 999.8
20260504223532 83 210 7.0 10.4 0.00 0.00 0.00 22 999.9
20260504223034 84 226 7.0 11.3 0.00 0.00 0.00 22 999.8
20260504222533 84 232 7.8 13.0 0.00 0.00 0.00 23 999.8
20260504222031 84 232 7.8 13.0 0.00 0.00 0.00 21 999.8
20260504221611 84 254 6.1 13.9 0.00 0.00 0.00 21 998.8
20260504221032 84 214 6.1 13.9 0.00 0.00 0.00 21 999.8
20260504220016 84 223 7.0 13.9 0.00 0.00 0.00 23 999.7
20260504215519 84 213 9.6 17.4 0.00 0.00 0.00 21 999.8
20260504214510 84 202 7.8 16.5 0.00 0.00 0.00 22 999.7
20260504214004 84 163 7.8 13.9 0.00 0.00 0.00 25 999.8
20260504213507 84 183 8.7 17.4 0.00 0.00 0.00 24 999.9
20260504213006 84 217 7.0 17.4 0.00 0.00 0.00 25 999.9
20260504211459 84 236 7.8 17.4 0.00 0.00 0.00 24 999.7
20260504210955 84 213 7.0 13.0 0.00 0.00 0.00 25 999.8
20260504210456 84 188 7.0 13.0 0.00 0.00 0.00 26 999.9
20260504210144 83 192 8.7 13.9 0.00 0.00 0.00 26 998.8
20260504205953 84 194 7.8 13.9 0.00 0.00 0.00 27 999.9
20260504204518 83 233 9.6 13.9 0.00 0.00 0.00 27 999.0
20260504204448 84 263 8.7 13.9 0.00 0.00 0.00 28 1000.0
20260504203946 84 222 7.8 13.0 0.00 0.00 0.00 27 1000.0
20260504203453 83 225 8.7 15.6 0.00 0.00 0.00 29 1000.0
20260504202934 83 254 9.6 15.6 0.00 0.00 0.00 29 1000.2
20260504202432 83 229 7.8 13.9 0.00 0.00 0.00 29 1000.2
20260504201337 83 205 8.7 15.6 0.00 0.00 0.00 28 1000.2
20260504195747 83 211 6.1 15.6 0.00 0.00 0.00 32 1000.3
20260504195216 83 221 5.2 10.4 0.00 0.00 0.00 34 1000.3
20260504194648 83 241 5.2 11.3 0.00 0.00 0.00 31 1000.3
20260504194622 82 241 4.3 11.3 0.00 0.00 0.00 31 999.4
20260504194121 83 223 4.3 11.3 0.00 0.00 0.00 31 1000.4
20260504193558 82 178 6.1 13.0 0.00 0.00 0.00 32 1000.3
20260504193034 82 263 7.0 13.0 0.00 0.00 0.00 32 1000.4
20260504193002 82 259 9.6 13.0 0.00 0.00 0.00 33 999.4
20260504192505 82 256 7.8 13.0 0.00 0.00 0.00 34 1000.3
20260504191939 82 225 8.7 13.0 0.00 0.00 0.00 33 1000.3
20260504190845 82 244 6.1 10.4 0.00 0.00 0.00 36 1000.4
20260504190315 82 217 7.0 12.2 0.00 0.00 0.00 34 1000.5
20260504185807 81 221 7.0 12.2 0.00 0.00 0.00 34 1000.5
20260504184736 82 214 7.0 11.3 0.00 0.00 0.00 33 1000.7
20260504184213 82 244 5.2 12.2 0.00 0.00 0.00 34 1000.6
20260504183639 82 165 4.3 8.7 0.00 0.00 0.00 38 1000.6
20260504183111 81 139 4.3 8.7 0.00 0.00 0.00 37 1000.6
20260504183041 81 166 2.6 8.7 0.00 0.00 0.00 37 999.7
20260504182544 81 205 4.3 8.7 0.00 0.00 0.00 39 1000.7
20260504182038 80 185 5.2 9.6 0.00 0.00 0.00 43 1000.7
20260504180528 80 210 5.2 10.4 0.00 0.00 0.00 39 1000.8
20260504180029 80 218 5.2 9.6 0.00 0.00 0.00 39 1000.7
20260504175528 80 207 5.2 10.4 0.00 0.00 0.00 39 1000.8
20260504175029 79 148 5.2 10.4 0.00 0.00 0.00 39 1000.9
20260504174528 79 223 4.3 9.6 0.00 0.00 0.00 40 1000.9
20260504174025 79 204 4.3 9.6 0.00 0.00 0.00 42 1000.9
20260504173526 79 202 4.3 8.7 0.00 0.00 0.00 42 1000.9
20260504173026 78 141 5.2 10.4 0.00 0.00 0.00 42 1001.0
20260504172524 78 200 5.2 10.4 0.00 0.00 0.00 41 1001.1
20260504172021 78 132 4.3 9.6 0.00 0.00 0.00 42 1001.1
20260504171647 77 167 4.3 9.6 0.00 0.00 0.00 43 1000.3
20260504171525 78 197 5.2 9.6 0.00 0.00 0.00 43 1001.1
20260504171023 78 140 5.2 8.7 0.00 0.00 0.00 44 1001.2
20260504170521 78 177 5.2 8.7 0.00 0.00 0.00 44 1001.3
20260504160337 74 196 6.1 12.2 0.00 0.00 0.00 46 1001.4
20260504160149 73 209 4.3 12.2 0.00 0.00 0.00 49 1000.5
20260504150340 71 185 6.1 11.3 0.00 0.00 0.00 52 1001.3
20260504140810 68 147 4.3 9.6 0.00 0.00 0.00 58 1001.5
20260504140303 68 192 4.3 9.6 0.00 0.00 0.00 61 1001.6
20260504130736 63 161 3.5 7.8 0.00 0.00 0.00 65 1001.9
20260504130238 63 125 3.5 7.0 0.00 0.00 0.00 64 1001.9
20260504110516 57 130 4.3 6.1 0.00 0.00 0.00 72 1001.6
20260504110120 56 128 4.3 6.1 0.00 0.00 0.00 72 1001.0
20260504100325 58 117 5.2 7.8 0.00 0.00 0.00 69 1002.3
20260504081532 59 81 1.7 5.2 0.00 0.00 0.00 66 1003.9
20260504081503 59 80 3.5 5.2 0.00 0.00 0.00 66 1003.3
20260504081003 60 65 1.7 4.3 0.00 0.00 0.00 65 1004.2
20260504080441 60 63 2.6 5.2 0.00 0.00 0.00 65 1004.2
20260504070302 62 95 6.1 11.3 0.00 0.00 0.00 57 1004.4
20260504060111 61 88 4.3 6.1 0.00 0.00 0.00 57 1004.7
20260504050738 62 116 1.7 3.5 0.00 0.00 0.00 59 1006.8
20260504050238 62 116 0.0 3.5 0.00 0.00 0.00 55 1006.9
20260504045721 62 116 0.9 3.5 0.00 0.00 0.00 56 1006.9
20260504045222 62 116 2.6 4.3 0.00 0.00 0.00 53 1006.6
20260504044703 62 116 3.5 4.3 0.00 0.00 0.00 53 1006.6
20260504044628 61 116 1.7 4.3 0.00 0.00 0.00 53 1006.2
20260504044214 62 116 3.5 5.2 0.00 0.00 0.00 54 1006.6
20260504043704 62 118 4.3 6.1 0.00 0.00 0.00 54 1006.7
20260504043203 61 121 4.3 7.0 0.00 0.00 0.00 55 1006.8
20260504043053 61 121 3.5 7.0 0.00 0.00 0.00 55 1006.4
20260504042204 62 134 3.5 5.2 0.00 0.00 0.00 54 1007.0
20260504041704 62 290 1.7 3.5 0.00 0.00 0.00 54 1007.1
20260504040703 62 290 0.9 4.3 0.00 0.00 0.00 52 1007.1
20260504040204 63 290 1.7 4.3 0.00 0.00 0.00 51 1007.1
20260504035655 63 290 1.7 3.5 0.00 0.00 0.00 51 1007.0
20260504035156 62 290 0.9 2.6 0.00 0.00 0.00 51 1007.0
20260504033654 63 290 0.9 3.5 0.00 0.00 0.00 50 1007.0
20260504033149 62 290 0.9 3.5 0.00 0.00 0.00 51 1006.7
20260504033146 63 290 1.7 3.5 0.00 0.00 0.00 51 1007.1
20260504032658 63 290 1.7 4.3 0.00 0.00 0.00 51 1007.0
20260504032129 63 290 1.7 4.3 0.00 0.00 0.00 51 1007.1
20260504031632 63 290 2.6 4.3 0.00 0.00 0.00 52 1007.1
20260504031519 62 290 2.6 4.3 0.00 0.00 0.00 52 1006.7
20260504031124 63 290 3.5 4.3 0.00 0.00 0.00 52 1007.0
20260504030623 63 286 3.5 4.3 0.00 0.00 0.00 51 1007.0
20260504030124 62 286 2.6 4.3 0.00 0.00 0.00 52 1007.1
20260504025619 62 286 1.7 4.3 0.00 0.00 0.00 53 1007.1
20260504025121 62 286 0.0 0.0 0.00 0.00 0.00 53 1007.1
20260504023614 63 286 2.6 4.3 0.00 0.00 0.00 51 1007.0
20260504023114 63 286 2.6 4.3 0.00 0.00 0.00 51 1007.1
20260504022607 63 286 1.7 4.3 0.00 0.00 0.00 51 1007.1
20260504022105 63 286 1.7 3.5 0.00 0.00 0.00 53 1007.0
20260504021605 64 286 1.7 2.6 0.00 0.00 0.00 50 1007.0
20260504021544 63 286 1.7 2.6 0.00 0.00 0.00 51 1006.6
20260504021039 64 286 2.6 5.2 0.00 0.00 0.00 52 1007.0
20260504020522 65 286 1.7 5.2 0.00 0.00 0.00 50 1007.0
20260504020020 65 286 0.0 0.0 0.00 0.00 0.00 45 1007.0
20260504015452 65 286 0.0 1.7 0.00 0.00 0.00 44 1007.0
20260504014929 66 286 0.9 3.5 0.00 0.00 0.00 44 1007.1
20260504014359 66 286 1.7 2.6 0.00 0.00 0.00 45 1007.1
20260504013831 67 286 1.7 3.5 0.00 0.00 0.00 44 1007.2
20260504013301 68 281 1.7 1.7 0.00 0.00 0.00 45 1007.2
20260504012734 68 281 0.9 1.7 0.00 0.00 0.00 40 1007.2
20260504012208 69 281 0.9 1.7 0.00 0.00 0.00 41 1007.2